Location: Casalecchio di Reno
(44.4760°N, 11.2757°E)
Time: 18:12:21
(UTC+02:00)

DX 1 - Pass Details

Date: 25 June 2024
Orbit: 607 x 619 km, 98.3° (Epoch: 19 July)

Event Time Altitude Azimuth Distance (km) Brightness Sun altitude
Rises 01:47:47 0° 8° (N) 2,877 ? -21.8°
Reaches altitude 10° 01:50:00 10° 4° (N) 1,969 ? -21.7°
Maximum altitude 01:54:09 53° 288° (WNW) 753 ? -21.6°
Enters shadow 01:54:56 46° 250° (WSW) 826 ? -21.6°
